GFSNIL_sfc_thetae_072.txt.gz
Theta_e
316 316 313 313 315 315 316 317 318 318 318 319 319 319 319 318 317 315 315 316 315 316
317 315 313 313 314 315 316 317 317 318 318 318 319 319 318 316 317 317 316 316 315 315
318 318 316 314 313 314 316 316 317 315 318 319 318 318 318 317 317 316 316 317 316 316
317 317 318 316 314 314 315 315 316 316 316 317 319 319 317 317 317 316 316 316 315 315
317 318 317 317 317 316 315 315 315 316 315 315 316 318 318 317 317 316 315 315 315 315
316 317 317 317 318 318 318 317 316 316 315 314 315 316 316 317 316 316 316 316 315 314
315 316 316 318 318 318 318 318 318 317 316 315 315 315 316 316 315 315 315 316 315 314
316 316 316 317 317 318 318 318 318 317 317 317 316 315 314 315 315 315 315 315 315 315
316 316 316 316 316 317 317 317 317 317 317 316 316 306 301 308 315 316 316 315 315 316
304 305 312 316 316 316 316 317 317 317 317 317 317 303 300 299 314 316 317 317 316 316
298 299 301 304 307 317 317 316 317 318 318 318 319 302 300 299 311 315 316 317 316 315
293 295 296 297 299 301 303 317 317 318 318 318 317 291 293 297 311 313 314 312 298 298
289 291 290 292 294 295 298 301 299 290 288 287 289 288 290 291 304 308 294 287 287 288
286 287 287 288 290 291 289 287 286 284 283 283 285 286 287 288 289 288 286 285 284 285

GFSNIL_sfc_thetae_075.txt.gz
Theta_e
314 316 316 316 316 317 317 318 319 317 318 319 319 319 319 318 317 317 315 314 314 314
314 314 314 314 315 316 317 318 317 316 317 318 318 318 318 317 316 317 317 316 315 314
315 314 312 311 311 314 315 316 315 316 317 316 318 318 317 317 317 317 317 317 316 316
314 315 316 313 312 312 313 313 314 316 317 317 317 318 317 316 317 316 316 316 315 315
315 317 317 316 314 312 313 313 314 314 315 316 318 318 317 316 317 315 315 316 315 315
313 314 314 316 317 316 314 313 314 314 314 314 314 316 316 317 317 316 316 316 315 315
313 314 314 314 315 316 317 316 315 315 315 315 314 314 315 316 316 316 316 316 316 316
314 314 314 314 315 316 316 317 317 316 316 315 315 315 314 314 314 313 313 314 314 315
305 309 315 315 315 315 316 316 316 315 316 316 316 305 301 308 314 314 314 313 314 314
299 300 301 304 307 313 315 317 317 317 316 316 316 302 300 299 313 314 314 314 314 315
294 296 297 298 299 299 301 305 314 316 317 317 316 290 293 297 310 314 314 315 315 315
290 291 291 292 293 294 297 296 295 291 290 293 290 288 289 290 304 312 313 314 300 293
287 287 287 289 289 291 290 288 286 284 284 285 285 287 288 290 294 299 299 288 287 287
285 285 285 286 287 287 286 285 283 283 282 283 284 285 287 288 288 286 285 284 283 284

GFSNIL_sfc_thetae_078.txt.gz
Theta_e
312 312 312 315 317 318 318 318 318 320 319 319 319 319 318 317 316 316 315 314 313 312
311 312 315 315 316 317 317 318 318 318 319 319 318 318 319 319 318 317 316 316 315 315
315 313 313 311 313 316 317 317 314 315 318 318 318 319 319 318 318 317 317 317 315 315
315 314 311 312 312 311 315 316 316 316 316 317 317 317 317 318 317 316 316 316 316 315
316 315 312 313 312 313 312 314 315 315 316 316 316 317 317 316 317 315 315 315 315 315
314 315 312 313 314 312 312 312 313 314 313 313 316 316 316 316 316 315 315 315 315 315
314 314 312 312 313 313 313 312 313 313 314 314 313 315 316 316 316 316 316 316 316 316
312 315 314 314 313 313 314 314 313 313 314 315 315 315 314 314 314 315 315 315 316 316
303 304 304 307 313 315 315 316 316 316 315 314 314 304 300 308 314 314 313 313 314 315
297 297 299 301 301 301 302 304 310 313 316 316 314 289 291 295 312 314 314 313 314 314
292 292 294 294 294 295 297 294 292 291 292 295 291 288 289 289 297 310 314 314 312 302
289 289 291 290 291 291 290 288 287 287 287 287 287 287 289 290 296 302 292 288 287 287
287 287 287 288 288 288 287 286 285 283 284 285 284 286 288 289 294 287 286 284 284 285
284 285 286 286 286 286 285 284 283 282 282 282 284 284 285 286 285 284 282 281 282 282

GFSNIL_sfc_thetae_081.txt.gz
Theta_e
321 321 320 321 321 321 321 322 321 320 319 318 318 318 318 318 319 321 320 320 322 319
320 321 320 320 321 321 321 320 320 320 319 318 317 317 316 317 317 317 317 317 319 318
318 320 320 319 319 319 320 322 320 319 319 318 318 317 316 315 317 317 317 317 316 316
316 317 318 318 320 320 319 319 320 319 320 318 318 317 317 318 317 316 317 318 317 316
317 316 315 317 318 318 319 320 319 318 319 320 319 319 318 316 318 316 316 317 317 316
317 316 315 318 319 317 317 320 321 319 318 318 320 318 318 318 318 317 317 317 316 317
316 317 316 318 320 319 319 318 318 318 318 319 320 320 319 318 318 318 318 319 318 317
307 314 316 316 319 319 319 317 317 317 319 319 318 317 317 318 317 317 317 319 319 319
300 301 303 305 304 308 308 307 315 315 315 314 307 290 291 299 318 317 317 316 317 317
296 296 297 298 299 299 297 297 296 295 299 292 291 289 290 290 303 310 315 315 313 313
293 293 294 293 294 293 291 290 289 289 290 289 288 288 289 289 298 303 292 290 290 291
290 290 291 290 289 289 288 287 286 286 286 286 286 287 288 293 293 288 286 286 286 286
287 288 288 288 287 287 286 285 285 283 284 284 284 286 287 289 288 284 283 282 283 284
285 285 286 286 287 286 285 285 284 283 283 283 284 284 284 285 285 283 281 281 281 282

GFSNIL_sfc_thetae_084.txt.gz
Theta_e
325 324 322 323 323 322 321 320 320 318 319 318 318 319 321 320 321 323 325 324 324 323
324 323 321 323 325 325 326 325 321 321 318 318 317 318 319 318 318 320 322 325 325 324
323 324 323 324 324 324 325 323 323 321 320 317 318 317 318 316 318 318 319 319 319 322
321 322 322 322 322 323 324 323 323 321 319 317 316 316 315 314 315 316 317 319 318 317
323 322 320 320 323 325 324 324 323 323 319 318 317 316 314 312 313 314 314 315 317 316
320 319 318 318 323 322 321 322 322 321 321 320 319 319 316 315 316 316 317 316 313 314
317 318 317 318 321 319 319 319 320 320 319 319 321 320 318 317 316 316 318 318 318 316
307 311 315 317 319 321 321 320 321 321 320 320 320 301 301 320 320 320 320 321 322 322
301 302 302 303 304 304 304 301 302 302 304 296 295 289 290 296 316 319 319 318 320 320
297 297 297 297 296 294 294 294 294 294 293 290 289 289 290 290 301 306 296 294 295 298
294 293 293 293 292 290 290 289 289 289 289 288 288 288 290 290 294 289 288 287 288 288
291 290 290 289 288 288 287 286 286 286 286 286 286 287 290 290 287 285 284 284 285 285
289 289 288 288 287 287 287 286 286 284 285 286 285 286 287 288 286 283 283 284 284 284
288 288 289 289 289 289 288 287 286 285 285 285 285 285 285 287 287 284 283 283 283 283

GFSNIL_sfc_thetae_087.txt.gz
Theta_e
328 326 325 327 324 324 322 322 320 318 317 319 320 320 321 322 323 324 325 325 325 323
327 325 324 327 327 325 325 323 322 320 318 317 319 319 319 319 319 321 325 325 323 323
325 325 326 327 326 326 327 325 324 320 320 318 317 318 319 318 319 319 320 321 322 323
324 324 325 324 325 325 326 325 325 323 319 318 317 317 317 316 316 315 316 319 320 319
323 324 323 322 323 325 324 324 323 324 321 318 317 316 315 315 315 314 315 317 317 317
321 320 320 321 322 324 323 323 324 323 321 319 317 316 315 315 315 314 314 314 315 316
319 319 320 320 322 322 322 321 321 322 322 320 319 318 317 315 313 312 314 314 316 316
310 316 316 314 311 317 315 316 316 320 320 315 301 295 299 311 316 316 315 316 317 317
302 303 302 301 300 300 299 299 299 298 297 296 294 289 291 295 311 310 309 310 308 305
296 296 295 295 293 293 292 292 291 291 291 290 290 290 291 292 300 295 293 292 292 294
292 292 291 290 289 288 289 288 288 288 288 288 289 290 289 288 289 287 287 287 287 287
290 289 288 287 287 287 286 286 286 287 286 286 286 288 288 287 286 285 284 284 285 285
288 289 287 286 287 287 287 286 286 285 286 286 285 287 288 287 286 283 283 283 283 284
288 288 287 288 289 289 288 287 287 286 286 284 285 285 286 288 287 285 284 283 282 283

GFSNIL_sfc_thetae_090.txt.gz
Theta_e
328 326 325 326 324 323 321 320 320 318 319 320 321 321 322 322 322 321 320 321 321 320
327 325 324 326 325 324 322 321 320 319 318 318 319 320 321 320 319 320 321 321 321 320
325 325 325 325 323 324 324 322 320 319 318 318 318 319 319 319 320 320 321 321 320 318
325 323 324 324 325 325 325 324 322 320 318 317 317 318 317 317 317 317 317 317 317 317
322 323 323 323 324 324 323 324 322 321 319 317 316 317 316 315 315 314 314 314 315 315
320 321 320 321 321 322 322 322 322 322 319 317 316 315 315 314 313 312 312 313 314 314
319 319 319 319 322 321 321 320 321 321 320 318 316 315 315 314 314 314 314 314 314 315
309 311 310 307 310 309 308 305 305 303 301 299 297 294 299 313 313 311 311 312 312 311
301 300 299 298 298 298 297 296 296 294 294 294 295 291 292 299 304 304 304 302 302 297
294 293 293 293 292 292 291 291 290 291 291 290 290 290 291 292 293 291 291 290 292 293
291 290 289 289 288 288 288 288 287 287 288 288 288 288 288 288 287 286 286 286 287 287
289 287 287 286 286 286 286 286 285 286 285 286 286 288 287 287 285 284 283 284 285 285
288 287 286 286 286 286 286 284 284 283 284 285 285 288 287 286 285 282 282 283 283 285
286 287 287 287 287 287 286 284 283 282 282 282 283 284 287 287 284 282 281 280 280 282

GFSNIL_sfc_thetae_093.txt.gz
Theta_e
326 321 321 321 320 317 317 319 319 318 319 320 320 323 324 324 324 323 321 320 320 320
325 321 321 320 321 319 319 318 317 317 318 318 320 322 322 322 322 323 321 321 321 320
323 322 321 321 319 319 321 320 319 317 317 318 318 319 320 319 321 321 321 321 320 320
321 323 321 320 320 319 321 318 318 317 317 317 317 318 317 318 319 318 319 319 320 319
321 321 321 322 323 323 321 321 319 318 316 316 317 317 316 316 317 318 318 319 319 317
320 320 320 321 321 321 322 322 320 318 317 315 316 315 315 314 314 314 314 315 314 315
318 318 317 319 319 319 317 319 319 318 317 315 315 315 315 314 313 313 313 314 313 313
308 308 307 306 305 304 303 303 304 302 301 300 299 297 305 314 313 312 312 313 310 301
300 299 298 297 297 296 295 295 295 295 295 294 294 292 294 303 302 302 305 300 297 295
293 293 292 292 292 291 290 291 290 290 290 289 289 290 291 291 292 291 290 291 293 293
289 289 289 289 288 288 288 287 287 288 288 288 288 288 288 287 287 287 287 287 288 290
287 287 286 286 285 286 285 285 285 286 286 286 286 287 287 286 285 284 284 286 286 286
286 286 285 286 285 285 284 283 283 283 284 286 285 286 286 285 284 282 282 284 285 286
285 285 285 285 285 284 283 282 282 281 282 283 284 285 285 285 283 281 281 281 282 284

GFSNIL_sfc_thetae_096.txt.gz
Theta_e
323 322 322 321 321 321 322 322 320 320 321 321 322 324 324 324 324 323 321 320 320 319
323 320 320 320 321 318 317 316 315 317 317 318 319 320 321 323 323 323 322 321 321 320
322 322 322 320 318 318 317 317 315 316 316 316 318 319 320 321 322 322 322 321 320 320
321 322 322 320 318 318 318 319 317 317 316 316 316 318 318 319 319 319 320 320 320 319
321 321 321 320 319 318 318 319 318 317 316 316 316 317 316 316 317 317 317 319 319 318
320 320 320 320 320 321 320 319 318 317 315 315 316 316 315 315 314 317 318 318 318 318
317 317 316 315 314 314 319 319 318 317 316 315 315 315 315 314 314 313 314 315 315 317
308 308 307 305 304 303 303 302 304 303 302 301 300 299 307 313 312 312 312 305 302 299
298 298 298 297 296 296 295 295 294 293 293 293 293 291 294 304 306 307 304 297 294 293
292 291 291 292 291 290 290 290 290 289 289 288 289 289 290 291 294 293 293 294 294 291
288 287 287 287 286 287 287 287 287 287 287 287 287 287 288 288 288 288 287 289 291 289
286 285 285 284 284 285 285 284 285 286 286 285 285 287 286 286 286 285 285 286 286 286
286 285 284 283 283 283 283 283 283 283 284 285 284 286 286 285 284 283 283 284 285 286
283 285 285 285 284 283 282 282 281 281 282 283 284 284 285 284 283 282 282 282 283 284

GFSNIL_sfc_thetae_099.txt.gz
Theta_e
322 323 322 321 322 321 320 320 320 322 321 323 323 321 321 323 323 323 321 321 321 319
322 322 321 321 321 321 321 322 323 322 322 321 321 321 322 322 322 323 322 321 321 320
322 322 321 321 320 319 318 318 317 316 314 315 314 315 318 318 320 321 322 321 321 320
321 320 320 320 318 318 317 316 314 313 312 314 312 316 316 317 318 319 319 320 320 319
321 320 320 319 319 318 317 317 317 315 314 315 315 315 315 316 317 317 317 319 320 319
320 320 319 319 319 319 317 315 317 316 315 315 315 315 315 315 316 315 317 317 319 318
319 319 318 319 319 319 316 317 317 317 315 314 314 315 315 315 313 313 313 315 317 318
308 309 310 308 307 306 306 307 307 304 301 300 298 296 298 312 312 312 305 300 299 298
296 299 297 297 297 297 296 295 295 293 293 292 291 290 292 301 307 304 301 297 295 293
288 290 290 290 290 290 290 291 289 289 289 288 288 289 290 291 293 292 293 293 292 291
286 285 286 286 286 286 287 287 287 287 287 286 287 288 288 288 288 287 287 288 288 287
285 285 284 283 283 284 284 284 284 285 285 285 285 287 287 287 286 285 285 286 286 286
284 284 283 283 282 283 283 282 283 283 284 285 284 286 286 286 285 283 283 284 285 286
281 283 283 283 282 282 282 282 281 281 282 283 284 284 285 285 284 283 282 282 282 284

GFSNIL_sfc_thetae_102.txt.gz
Theta_e
329 324 324 325 325 324 324 324 324 324 325 325 324 323 323 321 321 322 321 321 321 320
324 322 321 322 323 322 322 320 321 321 322 322 322 321 322 321 321 321 321 322 322 321
324 323 321 321 320 321 320 320 320 318 318 318 319 321 321 320 321 321 322 322 321 321
321 321 321 320 320 320 320 320 319 319 318 317 316 316 315 315 315 316 318 320 320 320
320 320 319 319 319 319 318 318 317 316 315 315 315 315 315 312 316 316 316 317 318 318
318 319 318 319 318 319 318 317 317 316 315 315 315 315 314 314 315 316 316 317 317 317
306 318 317 319 318 318 318 316 315 316 315 315 314 314 315 315 314 313 310 308 310 314
293 298 306 310 315 315 313 312 309 305 302 301 300 297 300 309 313 309 302 299 297 294
288 290 291 295 297 297 295 295 295 293 293 292 292 290 293 300 303 301 298 295 293 292
288 286 286 288 290 289 289 289 288 288 288 288 289 290 292 292 293 292 291 290 290 290
287 286 285 285 285 285 286 285 286 286 286 287 288 288 289 289 289 287 287 287 287 287
284 284 284 283 283 283 283 283 284 284 285 285 286 287 288 287 286 285 285 286 286 285
282 282 282 282 282 283 283 283 283 283 284 285 284 287 287 286 285 283 283 284 284 286
281 281 281 281 281 281 281 281 281 281 282 282 283 284 285 285 283 282 282 282 282 283

GFSNIL_sfc_thetae_105.txt.gz
Theta_e
330 330 332 333 333 331 327 328 330 329 331 331 329 329 331 330 329 325 324 324 323 323
330 329 328 332 334 331 329 328 328 329 329 329 327 328 328 325 326 328 324 323 323 323
329 328 327 328 330 329 329 328 326 326 327 326 327 327 325 325 326 322 322 322 322 322
324 325 324 324 325 325 325 325 325 325 324 324 325 326 325 325 321 321 321 321 321 321
322 322 322 322 322 323 323 324 323 323 321 322 322 322 321 318 318 318 320 322 322 322
303 316 321 321 320 321 320 320 321 320 319 319 318 317 317 318 319 321 321 320 321 318
294 297 304 320 320 320 319 319 319 320 318 317 317 317 317 317 318 318 315 309 304 301
291 291 293 296 303 318 319 316 317 312 306 305 305 301 312 317 317 309 303 300 297 295
290 289 288 289 291 293 294 295 295 294 293 293 293 290 292 302 306 303 300 297 295 294
288 288 287 286 286 286 287 288 288 289 289 288 289 289 291 292 296 294 293 293 293 291
285 286 287 286 284 284 285 285 285 286 287 287 288 288 288 288 289 288 288 288 289 289
282 282 284 284 284 284 283 284 284 285 285 285 286 287 287 287 286 285 285 286 287 286
281 281 281 282 282 283 282 281 282 281 283 284 284 286 286 286 285 283 283 284 284 285
281 281 282 282 283 283 282 281 280 280 280 281 282 283 284 284 282 281 281 281 281 283

GFSNIL_sfc_thetae_108.txt.gz
Theta_e
307 313 326 331 330 333 333 330 332 333 334 334 336 335 336 335 334 335 334 330 330 327
305 311 328 335 331 331 335 333 332 332 331 333 332 331 333 333 333 332 332 331 329 326
304 312 331 335 332 331 336 334 333 332 330 330 329 329 331 332 331 329 331 329 329 326
308 328 331 331 333 332 333 332 331 330 327 328 328 328 327 328 329 328 328 328 328 324
305 314 324 327 330 330 329 328 327 327 326 326 326 327 327 327 327 326 326 325 323 324
298 300 305 322 324 325 325 324 324 324 324 324 325 325 327 326 325 325 325 324 325 324
293 296 298 301 310 321 321 321 322 323 323 323 323 324 324 322 321 321 321 319 319 315
292 292 291 293 294 297 305 316 319 318 318 315 316 312 322 321 321 317 312 309 305 301
288 289 289 289 290 290 291 293 295 296 298 297 295 292 294 312 315 308 304 300 299 297
286 286 287 287 286 286 286 288 288 289 289 290 290 291 292 293 297 295 294 295 296 295
284 284 285 285 284 284 284 284 285 285 286 286 287 288 288 288 288 287 287 288 289 289
283 283 283 283 282 283 282 282 282 283 284 285 285 287 287 286 285 284 284 285 286 286
284 284 283 284 282 282 282 281 281 280 281 283 283 286 286 285 284 282 282 283 283 284
285 284 284 284 285 284 283 282 281 280 279 280 281 282 284 284 282 281 281 280 280 282

GFSNIL_sfc_thetae_111.txt.gz
Theta_e
299 303 306 313 319 327 334 336 339 333 334 336 336 337 338 338 334 334 335 335 335 332
298 300 303 308 316 324 333 336 338 335 333 333 334 334 336 336 337 335 333 335 335 333
296 299 302 305 310 322 334 336 337 337 333 332 332 332 334 334 335 336 333 333 331 331
296 300 304 312 316 327 333 334 334 333 332 331 331 331 331 332 332 330 329 330 329 329
296 298 302 307 323 328 331 333 333 333 330 329 329 329 329 330 332 329 327 328 328 328
293 294 295 300 306 309 327 330 329 330 329 328 327 327 329 331 330 327 327 328 328 327
288 291 292 295 297 301 305 321 324 325 325 325 325 325 327 328 329 327 326 326 326 323
287 288 290 291 292 293 295 296 300 310 311 317 320 319 324 326 326 321 317 313 309 301
285 286 287 288 288 288 289 289 291 290 292 294 298 297 304 315 318 315 309 302 299 296
285 284 284 286 285 285 285 286 287 289 288 287 291 293 297 296 298 296 295 298 296 295
284 284 283 283 282 283 283 282 283 283 286 286 286 287 288 288 288 287 287 288 289 289
284 284 284 282 282 282 281 281 281 281 282 283 284 287 286 286 284 284 284 285 285 285
285 285 284 285 284 284 283 281 281 280 281 282 282 285 285 285 284 282 282 282 283 284
285 285 285 285 285 285 285 284 283 281 281 280 281 282 283 283 281 280 280 280 280 282

GFSNIL_sfc_thetae_114.txt.gz
Theta_e
297 297 298 300 302 305 309 314 320 330 332 333 333 334 335 334 334 333 331 329 329 327
294 295 296 298 300 302 306 310 315 322 331 332 333 332 333 333 332 332 331 330 329 328
293 294 296 298 299 301 303 307 312 317 328 332 332 332 333 332 332 330 331 327 326 325
292 293 295 297 299 302 306 308 310 317 326 330 330 331 331 331 330 330 330 329 327 324
290 291 293 294 297 301 305 316 314 319 327 328 329 329 330 329 329 329 327 327 327 325
288 288 290 292 294 296 302 306 318 325 326 327 328 328 330 330 329 329 328 327 325 324
286 287 288 290 291 291 294 296 298 312 322 326 327 328 328 328 328 328 327 325 323 321
286 286 287 287 288 288 288 291 293 293 295 298 302 306 321 327 327 325 316 306 300 296
285 285 284 285 285 285 286 285 287 289 291 290 290 291 297 317 323 313 304 297 294 293
285 284 283 283 282 282 282 284 283 284 287 288 288 289 293 295 299 299 300 297 295 294
285 284 284 283 282 281 281 281 281 282 283 285 287 289 289 288 288 288 287 287 287 288
284 284 284 284 283 283 282 281 281 281 281 281 283 286 287 285 284 284 283 284 285 285
283 283 283 283 284 284 284 282 282 282 282 282 281 284 284 284 283 281 281 282 283 285
283 282 282 283 283 283 283 282 281 280 281 282 283 283 284 283 280 279 280 280 281 283

GFSNIL_sfc_thetae_117.txt.gz
Theta_e
292 293 293 294 295 297 299 300 302 305 308 312 316 329 331 331 331 331 331 329 329 328
290 291 291 293 295 295 297 300 301 303 305 309 314 322 329 328 328 331 332 330 329 327
289 290 292 292 293 295 297 299 301 301 303 306 312 319 327 324 328 328 331 330 329 327
289 290 291 291 293 295 296 298 300 303 305 306 308 315 326 325 326 326 328 329 327 325
289 289 289 290 291 294 294 296 299 304 308 308 309 314 325 327 327 326 327 327 326 324
287 287 287 288 290 290 291 293 296 297 303 311 312 314 324 326 328 327 327 326 326 325
286 286 286 286 287 288 289 289 291 295 295 299 303 315 324 324 324 325 326 325 326 325
286 286 285 284 285 285 286 287 287 289 291 292 292 297 305 317 323 324 317 308 303 302
285 285 285 284 283 283 283 284 285 284 286 288 289 290 295 308 319 310 302 296 293 293
285 284 285 284 283 282 282 282 282 283 284 284 286 287 289 290 290 291 294 296 297 293
283 283 283 284 283 282 282 281 282 282 282 283 284 286 286 286 286 285 286 287 289 291
281 281 282 281 282 282 281 280 280 281 282 282 283 285 285 285 284 284 284 284 285 286
280 279 279 280 280 281 281 280 280 279 280 282 282 285 284 283 282 281 282 283 283 285
279 278 277 278 279 278 278 278 278 278 278 279 281 283 285 284 281 281 281 281 282 283

GFSNIL_sfc_thetae_120.txt.gz
Theta_e
288 288 289 291 292 293 294 295 296 297 299 301 302 305 309 313 326 328 327 326 327 326
287 288 289 290 292 293 294 295 297 299 299 300 301 303 307 310 314 327 327 327 328 327
287 289 289 290 290 292 293 294 296 296 298 299 302 302 304 307 313 323 326 327 326 326
287 288 289 289 290 291 292 293 293 294 296 298 300 303 305 306 309 316 324 326 326 327
287 287 287 287 288 289 289 291 292 293 295 298 300 304 306 306 309 313 321 323 325 326
286 286 286 285 286 287 287 289 290 290 293 295 298 299 310 309 309 313 321 322 322 324
285 286 286 286 285 285 286 286 287 288 289 291 292 294 300 310 310 314 323 322 322 324
285 285 286 285 285 285 285 285 285 286 286 288 288 290 292 302 314 316 320 316 317 320
283 284 284 284 284 283 282 283 284 284 284 284 287 287 291 297 298 299 298 296 296 297
281 281 282 282 282 281 281 281 281 282 284 284 284 287 287 288 288 289 289 292 294 291
279 278 280 280 280 280 280 279 279 280 282 283 284 285 286 286 285 285 285 285 285 287
278 276 277 277 278 278 278 278 279 279 280 281 283 286 285 285 284 283 283 283 284 285
277 275 275 275 276 277 277 277 278 278 279 282 282 285 285 283 283 281 282 283 283 285
277 276 275 275 275 275 276 276 277 277 278 279 282 283 284 284 281 281 280 280 281 283

GFSNIL_sfc_thetae_123.txt.gz
Theta_e
288 288 289 289 289 290 291 293 295 295 297 298 300 301 301 301 303 308 312 325 323 323
287 287 288 289 290 290 292 293 294 295 296 297 298 300 301 300 301 305 309 314 325 323
287 287 288 289 288 289 290 291 292 293 293 294 296 298 300 301 302 303 306 312 321 324
287 287 287 286 287 287 288 289 290 291 292 292 293 296 298 300 301 302 305 309 314 323
286 287 286 286 286 287 287 288 288 289 290 291 293 295 297 298 302 305 306 307 309 318
285 285 285 285 285 285 285 286 287 288 288 288 290 291 293 295 298 301 306 308 309 314
282 284 283 284 284 284 284 283 284 286 287 287 288 289 290 292 295 299 309 310 311 314
281 281 282 282 282 282 282 282 283 283 285 286 286 287 288 292 295 297 309 308 305 302
280 280 280 280 280 280 281 281 281 281 283 284 285 287 288 289 292 293 294 294 292 292
278 278 278 279 278 278 278 279 279 280 282 283 284 286 287 286 285 286 286 287 288 288
276 276 276 276 276 277 277 277 278 279 280 281 283 285 286 285 284 284 284 284 285 285
275 274 274 274 274 276 276 277 278 279 279 280 281 285 284 283 282 282 282 283 284 284
276 275 274 274 274 275 276 277 278 278 278 280 279 284 283 281 281 279 280 281 282 284
276 276 275 275 276 275 275 276 277 277 277 277 279 279 282 282 279 278 278 278 279 281

GFSNIL_sfc_thetae_126.txt.gz
Theta_e
288 287 288 288 288 289 290 291 292 294 295 295 297 298 299 300 301 301 302 304 307 317
287 287 287 287 288 289 289 290 291 291 292 294 295 296 297 298 300 301 301 303 306 309
287 287 287 287 287 287 288 288 289 289 291 292 293 294 295 296 299 300 301 302 304 308
286 286 287 286 286 286 287 287 288 289 289 290 291 293 294 296 297 298 300 302 303 306
285 285 284 284 285 285 285 286 286 287 288 288 289 290 291 292 293 295 298 301 302 304
282 283 282 283 283 284 284 284 284 285 286 287 287 288 289 290 290 292 295 300 305 306
280 281 281 281 282 282 282 282 283 284 285 286 287 287 288 289 290 291 293 297 300 304
280 280 280 280 280 280 280 281 282 282 284 284 285 286 287 288 290 291 294 296 299 300
278 278 278 278 278 279 279 280 280 280 281 282 284 285 286 286 286 287 287 288 289 290
276 276 276 277 277 277 278 279 279 278 279 279 282 285 285 284 283 284 284 285 285 287
275 275 275 275 275 275 277 277 277 277 278 278 281 284 283 283 281 281 282 283 284 284
275 275 275 275 274 275 275 276 277 277 277 277 278 283 282 280 279 279 279 281 282 282
276 275 274 275 275 275 275 276 277 276 277 278 277 281 281 279 277 276 277 278 280 282
276 275 274 275 276 275 274 274 275 275 276 276 277 277 280 280 276 275 275 276 276 278

GFSNIL_sfc_thetae_129.txt.gz
Theta_e
290 289 289 289 288 289 289 290 292 292 293 294 295 296 297 297 299 301 301 302 303 307
288 288 288 288 289 288 289 290 290 290 290 291 293 293 294 295 296 299 301 303 303 303
287 287 287 287 287 287 288 288 288 288 289 290 291 292 293 293 295 296 299 301 302 303
285 286 286 286 286 285 286 287 287 287 287 288 289 290 290 291 292 295 296 299 300 302
284 284 284 284 284 285 284 286 286 286 287 287 287 289 288 289 290 291 292 294 298 301
283 284 283 283 283 284 284 284 285 286 286 286 286 287 287 289 289 290 291 292 294 298
282 282 283 283 283 283 284 283 284 284 285 285 286 285 286 287 288 289 291 294 294 296
280 281 281 281 281 282 283 283 283 283 283 285 285 285 284 284 285 286 287 290 292 293
279 279 279 279 280 280 281 281 281 280 281 282 284 284 284 284 283 283 284 284 286 287
278 277 278 279 279 279 280 280 280 279 280 280 282 284 283 283 282 280 281 281 282 283
277 277 278 278 277 278 280 280 279 279 279 278 280 282 282 281 280 280 279 280 281 281
277 276 277 277 277 278 278 278 279 278 278 278 278 281 280 278 278 278 278 279 280 280
278 277 276 278 277 277 277 277 278 278 277 278 277 280 280 278 276 275 276 277 278 280
278 278 278 278 278 277 276 276 276 276 276 276 277 277 279 278 276 275 275 275 274 277